This is the latest recevied weather packets stored in our database for station/object EA5JUX. If no packets are shown the sender has not sent any weather packets the latest 10 day(s).
| Time | Temp. | Humidity | Pressure | Rain* | Wind** | Luminosity | Snow |
|---|---|---|---|---|---|---|---|
| 1787751402 | 28.89° C | 71% | 1009.9 hPa | 0 mm | - | - | - |
| 1787751101 | 28.33° C | 71% | 1010 hPa | 0 mm | - | - | - |
| 1787750802 | 28.33° C | 69% | 1010.3 hPa | 0 mm | - | - | - |
| 1787750501 | 28.89° C | 68% | 1010.1 hPa | 0 mm | - | - | - |
| 1787750201 | 29.44° C | 67% | 1010.1 hPa | 0 mm | - | - | - |
| 1787749901 | 29.44° C | 67% | 1010.2 hPa | 0 mm | - | - | - |
| 1787749615 | 28.89° C | 67% | 1010.2 hPa | 0 mm | - | - | - |
| 1787749302 | 29.44° C | 68% | 1010.5 hPa | 0 mm | - | - | - |
| 1787749003 | 28.89° C | 67% | 1010.2 hPa | 0 mm | - | - | - |
| 1787748711 | 29.44° C | 67% | 1010.2 hPa | 0 mm | - | - | - |
| 1787748413 | 28.33° C | 67% | 1010.5 hPa | 0 mm | - | - | - |
| 1787748124 | 28.33° C | 67% | 1010.2 hPa | 0 mm | - | - | - |
| 1787747801 | 28.89° C | 67% | 1010.4 hPa | 0 mm | - | - | - |
| 1787747501 | 29.44° C | 67% | 1010.4 hPa | 0 mm | - | - | - |
| 1787747201 | 28.89° C | 66% | 1010.4 hPa | 0 mm | - | - | - |
| 1787746901 | 28.33° C | 66% | 1010.4 hPa | 0 mm | - | - | - |
| 1787746602 | 29.44° C | 64% | 1010.6 hPa | 0 mm | - | - | - |
| 1787746301 | 29.44° C | 61% | 1011 hPa | 0 mm | - | - | - |
| 1787746019 | 29.44° C | 58% | 1010.9 hPa | 0 mm | - | - | - |
| 1787745720 | 29.44° C | 60% | 1010.4 hPa | 0 mm | - | - | - |
| 1787745416 | 28.89° C | 62% | 1010.5 hPa | 0 mm | - | - | - |
| 1787745102 | 28.89° C | 60% | 1010.8 hPa | 0 mm | - | - | - |
| 1787744802 | 29.44° C | 61% | 1011.2 hPa | 0 mm | - | - | - |
| 1787744517 | 29.44° C | 57% | 1011 hPa | 0 mm | - | - | - |
| 1787744201 | 29.44° C | 58% | 1011.2 hPa | 0 mm | - | - | - |
* Rain latest hour (hover to see other rain measurements)
** Current wind speed in m/s (hover to see current wind gust speed)